User: anonymous   Login
Location: Strohbehn Observatory
(42.4649°N, 93.8239°W)
Time: 18:28:47
(UTC-05:00)
Language:

SL-16 R/B - Orbit

View from above orbital plane
View from above orbital plane
View from above satellite
View from above satellite

Ground track
Ground track

The orbit data is extracted from the following two-line orbital elements,

1 31793U 07029B   15212.85342480 -.00000009  00000-0  20448-4 0  9998
2 31793 070.9748 030.7583 0001636 263.6660 193.1542 14.14330706417670
Epoch (UTC): 31 July 2015 20:28:55
Eccentricity: 0.0001636
inclination: 70.9748°
perigee height: 843 km
apogee height: 846 km
right ascension of ascending node: 30.7583°
argument of perigee: 263.6660°
revolutions per day: 14.14330706
mean anomaly at epoch: 193.1542°
orbit number at epoch: 41767

The dashed part of the orbit path shows where the satellite is in the earth's shadow,  

DLR